Flag for Brazil Weather past 2 weeks in Brasilia, Distrito Federal, Brazil

Now
79 °F

Passing clouds.


Feels Like: 80 °F
Forecast: 65 / 83 °F
Wind: 9 mph from Southeast

Location: Brasilia Aeroporto

Current Time: Jan 30, 2015 at 11:21:09 AM

Latest Report: Jan 30, 2015 at 11:00 AM


Visibility: N/A

Pressure: 30.12 "Hg

Humidity: 58%

Dew point: 63 °F

Location of BrasiliaLocation

Historic Weather in Brasilia — Graph

°F

Brasilia temperature yesterday

Maximum temperature yesterday: 81 °F (at 5:00 PM)
Minimum temperature yesterday: 63 °F (at 5:00 AM)
Average temperature yesterday: 70 °F

Past Weeks' High & Low Weather Summary

 TemperatureHumidityPressure
High88 °F (Jan 17, 4:00 PM)100% (Jan 22, 7:00 AM)30.18 "Hg (Jan 22, 7:00 AM)
Low46 °F (Jan 22, 7:00 AM)24% (Jan 20, 5:00 PM)29.95 "Hg (Jan 20, 5:00 PM)
Average73 °F66%30.08 "Hg
* Reported Jan 15 10:00 AM — Jan 30 10:00 AM, Brasilia, Weather by CustomWeather, © 2014

Note: Actual official high and low records may vary slightly from our data, if they occured in-between our weather recording intervals... More about our weather records

Advertising

Brasilia weather history for previous 24 hours

 ConditionsComfort  
Time TempWeatherWind HumidityBarometerVisibility
10:00 AM
Jan 30
75 °FSunny.12 mph69%30.12 "Hg10 mi
9:00 AM73 °FSunny.5 mph78%30.09 "Hg10 mi
8:00 AM68 °FSunny.3 mph78%30.09 "Hg10 mi
7:00 AM64 °FPassing clouds.No wind88%30.07 "HgN/A
6:00 AM64 °FPassing clouds.3 mph94%30.04 "HgN/A
5:00 AM66 °FPassing clouds.No wind88%30.04 "HgN/A
4:00 AM66 °FPassing clouds.No wind83%30.04 "HgN/A
3:00 AM66 °FPassing clouds.No wind88%30.07 "HgN/A
2:00 AM66 °FPassing clouds.No wind88%30.09 "HgN/A
1:00 AM70 °FPassing clouds.3 mph78%30.09 "HgN/A
12:00 AM72 °FPassing clouds.3 mph73%30.09 "HgN/A
11:00 PM
Jan 29
72 °FPassing clouds.5 mph73%30.09 "HgN/A
10:00 PM72 °FPassing clouds.2 mph73%30.09 "HgN/A
9:00 PM72 °FPassing clouds.No wind73%30.07 "HgN/A
8:00 PM73 °FScattered clouds.3 mph69%30.07 "HgN/A
7:00 PM73 °FScattered showers. Partly sunny.12 mph65%N/AN/A
6:00 PM81 °FPassing clouds.9 mph48%30.04 "HgN/A
5:00 PM81 °FScattered clouds.5 mph48%30.04 "HgN/A
4:00 PM79 °FScattered clouds.3 mph54%30.07 "HgN/A
3:00 PM79 °FBroken clouds.5 mph58%30.09 "HgN/A
2:00 PM77 °FScattered clouds.5 mph57%30.09 "HgN/A
1:00 PM77 °FPartly sunny.7 mph54%30.12 "HgN/A
12:00 PM70 °FPartly sunny.12 mph78%30.15 "HgN/A
11:00 AMN/ALight rain.8 mphN/AN/A6 mi
Weather by CustomWeather, © 2014

See weather overviewHow to use our weather pages